Time,TemperatureF,DewpointF,PressureIn,WindDirection,WindDirectionDegrees,WindSpeedMPH,WindSpeedGustMPH,Humidity,HourlyPrecipIn,Conditions,Clouds,dailyrainin,SolarRadiationWatts/m^2,SoftwareType,DateUTC
2013-09-18 00:00:00,44.6,41.8,30.37,NNE,15,0.0,0.0,90,0.00,,,0.00,0,Wunderground v.1.15,2013-09-18 04:00:00,
2013-09-18 00:10:00,44.4,41.7,30.36,NNE,15,0.0,0.0,90,0.00,,,0.00,0,Wunderground v.1.15,2013-09-18 04:10:00,
2013-09-18 00:20:00,44.3,41.8,30.36,NNE,15,0.0,0.0,91,0.00,,,0.00,0,Wunderground v.1.15,2013-09-18 04:20:00,
2013-09-18 00:30:00,44.1,41.4,30.36,NNE,15,0.0,0.0,90,0.00,,,0.00,0,Wunderground v.1.15,2013-09-18 04:30:00,
2013-09-18 00:40:00,43.9,41.4,30.36,NNE,15,0.0,0.0,91,0.00,,,0.00,0,Wunderground v.1.15,2013-09-18 04:40:00,
2013-09-18 00:50:00,43.7,41.2,30.36,NNE,15,0.0,0.0,91,0.00,,,0.00,0,Wunderground v.1.15,2013-09-18 04:50:00,
2013-09-18 01:00:00,43.6,41.1,30.36,NNE,15,0.0,0.0,91,0.00,,,0.00,0,Wunderground v.1.15,2013-09-18 05:00:00,
2013-09-18 01:10:00,43.4,40.9,30.36,NNE,15,0.0,0.0,91,0.00,,,0.00,0,Wunderground v.1.15,2013-09-18 05:10:00,
2013-09-18 01:20:00,43.1,40.7,30.35,NNE,15,0.0,0.0,91,0.00,,,0.00,0,Wunderground v.1.15,2013-09-18 05:20:00,
2013-09-18 01:30:00,43.0,40.6,30.36,NNE,15,0.0,0.0,91,0.00,,,0.00,0,Wunderground v.1.15,2013-09-18 05:30:00,
2013-09-18 01:40:00,42.8,40.4,30.36,NNE,15,0.0,0.0,91,0.00,,,0.00,0,Wunderground v.1.15,2013-09-18 05:40:00,
2013-09-18 01:50:00,42.6,40.2,30.36,NNE,15,0.0,0.0,91,0.00,,,0.00,0,Wunderground v.1.15,2013-09-18 05:50:00,
2013-09-18 02:00:00,42.4,40.0,30.36,NNE,15,0.0,0.0,91,0.00,,,0.00,0,Wunderground v.1.15,2013-09-18 06:00:00,
2013-09-18 02:10:00,42.3,39.9,30.36,NNE,15,0.0,0.0,91,0.00,,,0.00,0,Wunderground v.1.15,2013-09-18 06:10:00,
2013-09-18 02:20:00,42.1,39.7,30.36,NNE,15,0.0,0.0,91,0.00,,,0.00,0,Wunderground v.1.15,2013-09-18 06:20:00,
2013-09-18 02:30:00,42.0,39.6,30.35,NNE,15,0.0,0.0,91,0.00,,,0.00,0,Wunderground v.1.15,2013-09-18 06:30:00,
2013-09-18 02:40:00,41.8,39.4,30.35,NNE,15,0.0,0.0,91,0.00,,,0.00,0,Wunderground v.1.15,2013-09-18 06:40:00,
2013-09-18 02:50:00,41.6,39.2,30.35,NNE,15,0.0,0.0,91,0.00,,,0.00,0,Wunderground v.1.15,2013-09-18 06:50:00,
2013-09-18 03:01:00,41.4,39.0,30.35,NNE,15,0.0,0.0,91,0.00,,,0.00,0,Wunderground v.1.15,2013-09-18 07:01:00,
2013-09-18 03:10:00,41.3,38.9,30.35,NNE,15,0.0,0.0,91,0.00,,,0.00,0,Wunderground v.1.15,2013-09-18 07:10:00,
2013-09-18 03:20:00,41.2,39.1,30.35,NNE,15,0.0,0.0,92,0.00,,,0.00,0,Wunderground v.1.15,2013-09-18 07:20:00,
2013-09-18 03:30:00,41.2,39.1,30.35,NNE,15,0.0,0.0,92,0.00,,,0.00,0,Wunderground v.1.15,2013-09-18 07:30:00,
2013-09-18 03:40:00,41.1,39.0,30.35,NNE,15,0.0,0.0,92,0.00,,,0.00,0,Wunderground v.1.15,2013-09-18 07:40:00,
2013-09-18 03:50:00,41.0,38.9,30.35,NNE,15,0.0,0.0,92,0.00,,,0.00,0,Wunderground v.1.15,2013-09-18 07:50:00,
2013-09-18 04:00:00,40.9,38.8,30.35,NNE,15,0.0,0.0,92,0.00,,,0.00,0,Wunderground v.1.15,2013-09-18 08:00:00,
2013-09-18 04:10:00,40.8,38.7,30.35,NNE,15,0.0,0.0,92,0.00,,,0.00,0,Wunderground v.1.15,2013-09-18 08:10:00,
2013-09-18 04:20:00,40.6,38.5,30.35,NNE,15,0.0,0.0,92,0.00,,,0.00,0,Wunderground v.1.15,2013-09-18 08:20:00,
2013-09-18 04:30:00,40.4,38.0,30.35,NNE,15,0.0,0.0,91,0.00,,,0.00,0,Wunderground v.1.15,2013-09-18 08:30:00,
2013-09-18 04:40:00,40.3,37.9,30.35,NNE,15,0.0,0.0,91,0.00,,,0.00,0,Wunderground v.1.15,2013-09-18 08:40:00,
2013-09-18 04:50:00,40.1,37.7,30.35,NNE,15,0.0,0.0,91,0.00,,,0.00,0,Wunderground v.1.15,2013-09-18 08:50:00,
2013-09-18 05:00:00,40.0,37.9,30.35,NNE,15,0.0,0.0,92,0.00,,,0.00,0,Wunderground v.1.15,2013-09-18 09:00:00,
2013-09-18 05:10:00,39.8,37.7,30.35,NNE,15,0.0,0.0,92,0.00,,,0.00,0,Wunderground v.1.15,2013-09-18 09:10:00,
2013-09-18 05:20:00,39.8,37.7,30.35,NNE,15,0.0,0.0,92,0.00,,,0.00,0,Wunderground v.1.15,2013-09-18 09:20:00,
2013-09-18 05:30:00,39.7,37.6,30.35,NNE,15,0.0,0.0,92,0.00,,,0.00,0,Wunderground v.1.15,2013-09-18 09:30:00,
2013-09-18 05:50:00,39.5,37.4,30.35,NNE,15,0.0,0.0,92,0.00,,,0.00,0,Wunderground v.1.15,2013-09-18 09:50:00,
2013-09-18 06:00:00,39.5,37.4,30.35,NNE,14,0.0,0.0,92,0.00,,,0.00,0,Wunderground v.1.15,2013-09-18 10:00:00,
2013-09-18 06:10:00,39.6,37.5,30.36,NNE,17,0.0,0.0,92,0.00,,,0.00,0,Wunderground v.1.15,2013-09-18 10:10:00,
2013-09-18 06:20:00,39.5,37.4,30.36,NNE,13,0.0,0.0,92,0.00,,,0.00,0,Wunderground v.1.15,2013-09-18 10:20:00,
2013-09-18 06:30:00,39.5,37.4,30.36,NNE,17,0.0,0.0,92,0.00,,,0.00,0,Wunderground v.1.15,2013-09-18 10:30:00,
2013-09-18 06:40:00,39.8,37.9,30.36,NNE,14,0.0,0.0,93,0.00,,,0.00,0,Wunderground v.1.15,2013-09-18 10:40:00,
2013-09-18 06:50:00,40.2,38.3,30.36,NNE,15,0.0,0.0,93,0.00,,,0.00,7,Wunderground v.1.15,2013-09-18 10:50:00,
2013-09-18 07:00:00,40.8,38.9,30.37,NNE,13,0.0,0.0,93,0.00,,,0.00,11,Wunderground v.1.15,2013-09-18 11:00:00,
2013-09-18 07:10:00,41.2,39.3,30.37,NNE,17,0.0,0.0,93,0.00,,,0.00,14,Wunderground v.1.15,2013-09-18 11:10:00,
2013-09-18 07:20:00,41.8,39.9,30.37,NNE,14,0.0,0.0,93,0.00,,,0.00,25,Wunderground v.1.15,2013-09-18 11:20:00,
2013-09-18 07:30:00,42.4,40.8,30.37,NNE,16,0.0,0.0,94,0.00,,,0.00,26,Wunderground v.1.15,2013-09-18 11:30:00,
2013-09-18 07:40:00,42.8,41.2,30.37,NNE,16,0.0,0.0,94,0.00,,,0.00,37,Wunderground v.1.15,2013-09-18 11:40:00,
2013-09-18 07:50:00,43.2,41.6,30.37,NNE,14,0.0,0.0,94,0.00,,,0.00,51,Wunderground v.1.15,2013-09-18 11:50:00,
2013-09-18 08:00:00,43.6,42.0,30.37,NNE,14,0.0,0.0,94,0.00,,,0.00,58,Wunderground v.1.15,2013-09-18 12:00:00,
2013-09-18 08:10:00,44.0,42.4,30.37,NNE,17,0.0,0.0,94,0.00,,,0.00,74,Wunderground v.1.15,2013-09-18 12:10:00,
2013-09-18 08:20:00,44.1,42.5,30.37,NNE,17,0.0,0.0,94,0.00,,,0.00,93,Wunderground v.1.15,2013-09-18 12:20:00,
2013-09-18 08:30:00,44.4,42.8,30.37,NNE,17,0.0,0.0,94,0.00,,,0.00,93,Wunderground v.1.15,2013-09-18 12:30:00,
2013-09-18 08:40:00,44.8,43.2,30.36,SE,141,0.0,0.0,94,0.00,,,0.00,93,Wunderground v.1.15,2013-09-18 12:40:00,
2013-09-18 08:50:00,45.2,43.6,30.36,SSW,208,0.0,1.0,94,0.00,,,0.00,105,Wunderground v.1.15,2013-09-18 12:50:00,
2013-09-18 09:00:00,45.5,43.9,30.36,SSE,167,0.0,1.0,94,0.00,,,0.00,137,Wunderground v.1.15,2013-09-18 13:00:00,
2013-09-18 09:10:00,45.8,44.2,30.36,SE,128,0.0,0.0,94,0.00,,,0.00,137,Wunderground v.1.15,2013-09-18 13:10:00,
2013-09-18 09:20:00,46.3,44.7,30.36,SE,131,0.0,0.0,94,0.00,,,0.00,146,Wunderground v.1.15,2013-09-18 13:20:00,
2013-09-18 09:30:00,46.8,45.2,30.36,SE,134,0.0,0.0,94,0.00,,,0.00,202,Wunderground v.1.15,2013-09-18 13:30:00,
2013-09-18 09:40:00,47.3,45.7,30.36,SE,142,0.0,0.0,94,0.00,,,0.00,304,Wunderground v.1.15,2013-09-18 13:40:00,
2013-09-18 09:50:00,47.9,46.3,30.36,South,173,0.0,0.0,94,0.00,,,0.00,253,Wunderground v.1.15,2013-09-18 13:50:00,
2013-09-18 10:00:00,48.6,47.0,30.36,ESE,123,0.0,0.0,94,0.00,,,0.00,517,Wunderground v.1.15,2013-09-18 14:00:00,
2013-09-18 10:10:00,49.5,47.8,30.35,SSE,160,1.0,1.0,94,0.00,,,0.00,547,Wunderground v.1.15,2013-09-18 14:10:00,
2013-09-18 10:20:00,50.6,48.4,30.35,SSE,151,0.0,1.0,92,0.00,,,0.00,571,Wunderground v.1.15,2013-09-18 14:20:00,
2013-09-18 10:30:00,51.9,49.1,30.35,SE,142,0.0,0.0,90,0.00,,,0.00,599,Wunderground v.1.15,2013-09-18 14:30:00,
2013-09-18 10:40:00,52.9,49.1,30.34,SSE,161,0.0,0.0,87,0.00,,,0.00,621,Wunderground v.1.15,2013-09-18 14:40:00,
2013-09-18 10:50:00,54.2,49.5,30.33,SSW,209,0.0,0.0,84,0.00,,,0.00,645,Wunderground v.1.15,2013-09-18 14:50:00,
2013-09-18 11:00:00,55.4,49.3,30.33,SSW,207,0.0,0.0,80,0.00,,,0.00,659,Wunderground v.1.15,2013-09-18 15:00:00,
2013-09-18 11:10:00,56.5,51.1,30.32,SSW,213,0.0,0.0,82,0.00,,,0.00,679,Wunderground v.1.15,2013-09-18 15:10:00,
2013-09-18 11:20:00,57.6,50.8,30.32,SSW,197,0.0,1.0,78,0.00,,,0.00,696,Wunderground v.1.15,2013-09-18 15:20:00,
2013-09-18 11:30:00,58.9,52.1,30.32,SSE,152,0.0,1.0,78,0.00,,,0.00,714,Wunderground v.1.15,2013-09-18 15:30:00,
2013-09-18 11:40:00,59.9,49.7,30.32,SW,228,1.0,1.0,69,0.00,,,0.00,726,Wunderground v.1.15,2013-09-18 15:40:00,
2013-09-18 11:50:00,60.9,53.6,30.32,SSE,148,0.0,0.0,77,0.00,,,0.00,740,Wunderground v.1.15,2013-09-18 15:50:00,
2013-09-18 12:00:00,61.7,49.8,30.31,North,360,0.0,0.0,65,0.00,,,0.00,749,Wunderground v.1.15,2013-09-18 16:00:00,
2013-09-18 12:10:00,62.4,50.5,30.31,NW,316,1.0,1.0,65,0.00,,,0.00,756,Wunderground v.1.15,2013-09-18 16:10:00,
2013-09-18 12:20:00,63.9,51.5,30.30,SE,140,0.0,0.0,64,0.00,,,0.00,763,Wunderground v.1.15,2013-09-18 16:20:00,
2013-09-18 12:30:00,64.8,52.8,30.29,SSE,167,0.0,1.0,65,0.00,,,0.00,768,Wunderground v.1.15,2013-09-18 16:30:00,
2013-09-18 12:40:00,65.9,53.4,30.29,SSE,157,1.0,1.0,64,0.00,,,0.00,772,Wunderground v.1.15,2013-09-18 16:40:00,
2013-09-18 13:00:00,68.3,50.0,30.28,SE,145,0.0,1.0,52,0.00,,,0.00,772,Wunderground v.1.15,2013-09-18 17:00:00,
2013-09-18 13:10:00,68.3,56.1,30.28,SE,142,0.0,0.0,65,0.00,,,0.00,770,Wunderground v.1.15,2013-09-18 17:10:00,
2013-09-18 13:20:00,68.7,52.8,30.27,SSE,159,1.0,1.0,57,0.00,,,0.00,766,Wunderground v.1.15,2013-09-18 17:20:00,
2013-09-18 13:40:00,69.0,50.1,30.25,SSE,161,1.0,1.0,51,0.00,,,0.00,668,Wunderground v.1.15,2013-09-18 17:40:00,
2013-09-18 13:50:00,68.8,52.9,30.25,SSE,159,0.0,4.0,57,0.00,,,0.00,53,Wunderground v.1.15,2013-09-18 17:50:00,
2013-09-18 14:00:00,68.3,52.9,30.25,South,184,1.0,1.0,58,0.00,,,0.00,72,Wunderground v.1.15,2013-09-18 18:00:00,
2013-09-18 14:10:00,68.0,48.7,30.24,WNW,284,1.0,1.0,50,0.00,,,0.00,251,Wunderground v.1.15,2013-09-18 18:10:00,
2013-09-18 14:20:00,67.8,54.3,30.24,WNW,292,0.0,0.0,62,0.00,,,0.00,329,Wunderground v.1.15,2013-09-18 18:20:00,
2013-09-18 14:30:00,67.3,51.1,30.23,North,5,0.0,0.0,56,0.00,,,0.00,39,Wunderground v.1.15,2013-09-18 18:30:00,
2013-09-18 14:40:00,66.8,52.5,30.23,WNW,289,0.0,0.0,60,0.00,,,0.00,42,Wunderground v.1.15,2013-09-18 18:40:00,
2013-09-18 14:50:00,66.3,54.2,30.22,North,360,1.0,1.0,65,0.00,,,0.00,37,Wunderground v.1.15,2013-09-18 18:50:00,
2013-09-18 15:00:00,65.9,52.5,30.22,ENE,73,1.0,1.0,62,0.00,,,0.00,35,Wunderground v.1.15,2013-09-18 19:00:00,
2013-09-18 15:10:00,65.7,50.0,30.22,SE,142,0.0,1.0,57,0.00,,,0.00,37,Wunderground v.1.15,2013-09-18 19:10:00,
2013-09-18 15:20:00,65.6,52.2,30.22,NNW,348,0.0,1.0,62,0.00,,,0.00,32,Wunderground v.1.15,2013-09-18 19:20:00,
2013-09-18 15:30:00,65.5,52.6,30.22,SE,142,0.0,1.0,63,0.00,,,0.00,32,Wunderground v.1.15,2013-09-18 19:30:00,
2013-09-18 15:40:00,65.3,52.8,30.21,South,183,1.0,1.0,64,0.00,,,0.00,30,Wunderground v.1.15,2013-09-18 19:40:00,
2013-09-18 15:50:00,65.1,53.0,30.21,SSW,194,0.0,1.0,65,0.00,,,0.00,30,Wunderground v.1.15,2013-09-18 19:50:00,
2013-09-18 16:00:00,65.0,54.6,30.20,SE,142,0.0,0.0,69,0.00,,,0.00,26,Wunderground v.1.15,2013-09-18 20:00:00,
2013-09-18 16:20:00,64.3,53.5,30.19,NNE,22,1.0,1.0,68,0.00,,,0.00,25,Wunderground v.1.15,2013-09-18 20:20:00,
2013-09-18 16:30:00,64.2,53.8,30.19,East,87,0.0,0.0,69,0.00,,,0.00,25,Wunderground v.1.15,2013-09-18 20:30:00,
2013-09-18 16:40:00,64.0,53.2,30.19,South,171,0.0,0.0,68,0.00,,,0.00,23,Wunderground v.1.15,2013-09-18 20:40:00,
2013-09-18 16:50:00,63.9,53.9,30.19,SSW,206,1.0,1.0,70,0.00,,,0.00,23,Wunderground v.1.15,2013-09-18 20:50:00,
2013-09-18 17:00:00,63.6,54.0,30.19,WSW,238,0.0,0.0,71,0.00,,,0.00,21,Wunderground v.1.15,2013-09-18 21:00:00,
2013-09-18 17:10:00,63.4,53.8,30.18,SSE,160,0.0,1.0,71,0.00,,,0.00,21,Wunderground v.1.15,2013-09-18 21:10:00,
2013-09-18 17:20:00,62.9,54.1,30.18,SSW,209,0.0,1.0,73,0.00,,,0.00,23,Wunderground v.1.15,2013-09-18 21:20:00,
2013-09-18 17:30:00,62.6,53.8,30.18,North,5,1.0,1.0,73,0.00,,,0.00,19,Wunderground v.1.15,2013-09-18 21:30:00,
2013-09-18 17:40:00,62.5,52.2,30.18,SSW,213,0.0,0.0,69,0.00,,,0.00,18,Wunderground v.1.15,2013-09-18 21:40:00,
2013-09-18 18:10:00,61.7,52.6,30.17,SW,225,0.0,0.0,72,0.00,,,0.00,12,Wunderground v.1.15,2013-09-18 22:10:00,
2013-09-18 18:20:00,61.3,52.2,30.17,NE,46,0.0,1.0,72,0.00,,,0.00,11,Wunderground v.1.15,2013-09-18 22:20:00,
2013-09-18 18:30:00,60.9,51.8,30.17,South,188,0.0,0.0,72,0.00,,,0.00,9,Wunderground v.1.15,2013-09-18 22:30:00,
2013-09-18 18:40:00,60.5,51.4,30.17,ESE,104,0.0,0.0,72,0.00,,,0.00,7,Wunderground v.1.15,2013-09-18 22:40:00,
2013-09-18 18:50:00,60.0,51.3,30.17,ESE,103,0.0,0.0,73,0.00,,,0.00,0,Wunderground v.1.15,2013-09-18 22:50:00,
2013-09-18 19:00:00,59.4,51.1,30.17,ESE,103,0.0,0.0,74,0.00,,,0.00,0,Wunderground v.1.15,2013-09-18 23:00:00,
2013-09-18 19:10:00,58.8,50.9,30.17,ESE,104,0.0,0.0,75,0.00,,,0.00,0,Wunderground v.1.15,2013-09-18 23:10:00,
2013-09-18 19:20:00,58.2,50.3,30.17,ESE,102,0.0,0.0,75,0.00,,,0.00,0,Wunderground v.1.15,2013-09-18 23:20:00,
2013-09-18 19:30:00,57.6,50.4,30.17,ESE,104,0.0,0.0,77,0.00,,,0.00,0,Wunderground v.1.15,2013-09-18 23:30:00,
2013-09-18 19:40:00,57.1,50.3,30.17,ESE,103,0.0,0.0,78,0.00,,,0.00,0,Wunderground v.1.15,2013-09-18 23:40:00,
2013-09-18 19:50:00,56.6,50.2,30.17,ESE,105,0.0,0.0,79,0.00,,,0.00,0,Wunderground v.1.15,2013-09-18 23:50:00,
2013-09-18 20:00:00,56.2,50.4,30.17,ESE,106,0.0,0.0,81,0.00,,,0.00,0,Wunderground v.1.15,2013-09-19 00:00:00,
2013-09-18 20:10:00,55.9,50.2,30.18,ESE,103,0.0,0.0,81,0.00,,,0.00,0,Wunderground v.1.15,2013-09-19 00:10:00,
2013-09-18 20:20:00,55.7,50.3,30.18,ESE,102,0.0,0.0,82,0.00,,,0.00,0,Wunderground v.1.15,2013-09-19 00:20:00,
2013-09-18 20:30:00,55.3,49.9,30.18,ESE,103,0.0,0.0,82,0.00,,,0.00,0,Wunderground v.1.15,2013-09-19 00:30:00,
2013-09-18 20:40:00,54.9,49.8,30.18,ESE,103,0.0,0.0,83,0.00,,,0.00,0,Wunderground v.1.15,2013-09-19 00:40:00,
2013-09-18 20:50:00,54.5,49.4,30.17,ESE,103,0.0,0.0,83,0.00,,,0.00,0,Wunderground v.1.15,2013-09-19 00:50:00,
2013-09-18 21:10:00,53.7,49.6,30.18,ESE,105,0.0,0.0,86,0.00,,,0.00,0,Wunderground v.1.15,2013-09-19 01:10:00,
2013-09-18 21:20:00,53.4,49.3,30.18,ESE,105,0.0,0.0,86,0.00,,,0.00,0,Wunderground v.1.15,2013-09-19 01:20:00,
2013-09-18 21:30:00,53.1,49.0,30.18,ESE,103,0.0,0.0,86,0.00,,,0.00,0,Wunderground v.1.15,2013-09-19 01:30:00,
2013-09-18 21:40:00,52.9,49.1,30.18,ESE,103,0.0,0.0,87,0.00,,,0.00,0,Wunderground v.1.15,2013-09-19 01:40:00,
2013-09-18 21:50:00,52.6,48.8,30.18,ESE,105,0.0,0.0,87,0.00,,,0.00,0,Wunderground v.1.15,2013-09-19 01:50:00,
2013-09-18 22:00:00,52.4,48.9,30.19,ESE,103,0.0,0.0,88,0.00,,,0.00,0,Wunderground v.1.15,2013-09-19 02:00:00,
2013-09-18 22:20:00,51.9,48.5,30.18,ESE,103,0.0,0.0,88,0.00,,,0.00,0,Wunderground v.1.15,2013-09-19 02:20:00,
2013-09-18 22:30:00,51.6,48.2,30.19,ESE,105,0.0,0.0,88,0.00,,,0.00,0,Wunderground v.1.15,2013-09-19 02:30:00,
2013-09-18 22:40:00,51.4,48.3,30.18,ESE,105,0.0,0.0,89,0.00,,,0.00,0,Wunderground v.1.15,2013-09-19 02:40:00,
2013-09-18 22:50:00,51.1,48.0,30.18,ESE,102,0.0,0.0,89,0.00,,,0.00,0,Wunderground v.1.15,2013-09-19 02:50:00,
2013-09-18 23:01:00,50.8,47.7,30.18,East,101,0.0,0.0,89,0.00,,,0.00,0,Wunderground v.1.15,2013-09-19 03:01:00,
2013-09-18 23:10:00,50.5,47.4,30.18,ESE,104,0.0,0.0,89,0.00,,,0.00,0,Wunderground v.1.15,2013-09-19 03:10:00,
2013-09-18 23:20:00,50.4,47.6,30.18,ESE,104,0.0,0.0,90,0.00,,,0.00,0,Wunderground v.1.15,2013-09-19 03:20:00,
2013-09-18 23:30:00,50.2,47.4,30.18,ESE,104,0.0,0.0,90,0.00,,,0.00,0,Wunderground v.1.15,2013-09-19 03:30:00,
2013-09-18 23:40:00,50.1,47.3,30.18,ESE,104,0.0,0.0,90,0.00,,,0.00,0,Wunderground v.1.15,2013-09-19 03:40:00,
2013-09-18 23:50:00,49.9,47.1,30.18,ESE,104,0.0,0.0,90,0.00,,,0.00,0,Wunderground v.1.15,2013-09-19 03:50:00,